KS4XQ Weather Reports


Display with metric or nautical units.
time (UTC)temp
F
wind
direction
speed
MPH
gust
MPH
rain 1hr
in
rain 24hr
in
rain mn
in
humidity
%
barometer
mb
20260509140501 62 287 2.0 6.0 0.00 0.00 0.00 85 1012.1
20260509135502 62 170 1.0 4.0 0.00 0.00 0.00 88 1012.1
20260509135001 62 282 1.0 3.0 0.00 0.00 0.00 89 1012.2
20260509134500 61 282 1.0 3.0 0.00 0.00 0.00 90 1012.2
20260509134000 61 282 1.0 2.0 0.00 0.00 0.00 91 1012.0
20260509133502 61 181 0.0 2.0 0.00 0.00 0.00 92 1012.0
20260509133001 60 298 0.0 2.0 0.00 0.00 0.00 92 1011.9
20260509132501 60 298 0.0 2.0 0.00 0.00 0.00 93 1012.0
20260509131501 59 212 0.0 2.0 0.00 0.00 0.00 94 1012.2
20260509125501 58 188 0.0 3.0 0.00 0.00 0.00 96 1012.3
20260509124501 57 203 0.0 3.0 0.00 0.00 0.00 96 1012.6
20260509124003 57 297 0.0 2.0 0.00 0.00 0.00 97 1012.7
20260509123000 56 258 0.0 0.0 0.00 0.00 0.00 97 1012.7
20260509122501 56 258 0.0 0.0 0.00 0.00 0.00 97 1012.8
20260509121501 55 258 0.0 0.0 0.00 0.00 0.00 97 1012.9
20260509121001 55 258 0.0 0.0 0.00 0.00 0.00 96 1012.7
20260509120502 55 258 0.0 0.0 0.00 0.00 0.00 97 1012.9
20260509120003 55 258 0.0 0.0 0.00 0.00 0.00 97 1013.0
20260509115501 55 258 0.0 0.0 0.00 0.00 0.00 97 1012.9
20260509115002 55 258 0.0 0.0 0.00 0.00 0.00 97 1012.8
20260509114501 54 258 0.0 0.0 0.00 0.00 0.00 97 1012.8
20260509114001 54 258 0.0 0.0 0.00 0.00 0.00 97 1012.6
20260509113500 54 258 0.0 0.0 0.00 0.00 0.00 97 1012.2
20260509112503 53 258 0.0 0.0 0.00 0.00 0.00 96 1012.4
20260509112000 53 258 0.0 0.0 0.00 0.00 0.00 96 1012.4
20260509111501 53 258 0.0 0.0 0.00 0.00 0.00 96 1012.6
20260509111002 53 258 0.0 0.0 0.00 0.00 0.00 96 1012.5
20260509110501 53 258 0.0 0.0 0.00 0.00 0.00 96 1012.5
20260509105503 53 258 0.0 0.0 0.00 0.00 0.00 96 1012.4
20260509104501 53 258 0.0 0.0 0.00 0.00 0.00 96 1012.4
20260509104001 53 258 0.0 0.0 0.00 0.00 0.00 96 1012.3
20260509103502 52 258 0.0 0.0 0.00 0.00 0.00 96 1012.3
20260509103001 52 258 0.0 0.0 0.00 0.00 0.00 96 1012.4
20260509102003 52 258 0.0 0.0 0.00 0.00 0.00 96 1012.6
20260509101501 52 258 0.0 0.0 0.00 0.00 0.00 95 1012.6
20260509101002 52 258 0.0 0.0 0.00 0.00 0.00 95 1012.5
20260509100501 52 258 0.0 0.0 0.00 0.00 0.00 95 1012.5
20260509100005 52 258 0.0 0.0 0.00 0.00 0.00 95 1012.4
20260509095501 52 258 0.0 0.0 0.00 0.00 0.00 96 1012.3
20260509095001 52 258 0.0 0.0 0.00 0.00 0.00 96 1012.2
20260509094502 52 258 0.0 0.0 0.00 0.00 0.00 95 1012.2
20260509094000 52 258 0.0 0.0 0.00 0.00 0.00 95 1012.4
20260509093501 52 258 0.0 0.0 0.00 0.00 0.00 96 1012.4
20260509093002 51 258 0.0 0.0 0.00 0.00 0.00 95 1012.2
20260509092500 51 258 0.0 0.0 0.00 0.00 0.00 94 1012.0
20260509092002 51 258 0.0 0.0 0.00 0.00 0.00 94 1012.0
20260509091500 51 258 0.0 0.0 0.00 0.00 0.00 94 1012.0
20260509091000 51 258 0.0 0.0 0.00 0.00 0.00 94 1012.0
20260509090500 51 258 0.0 0.0 0.00 0.00 0.00 94 1011.8
20260509090006 51 258 0.0 0.0 0.00 0.00 0.00 94 1011.9
20260509085501 51 258 0.0 0.0 0.00 0.00 0.00 95 1012.0
20260509085000 51 258 0.0 0.0 0.00 0.00 0.00 95 1012.2
20260509084502 51 258 0.0 0.0 0.00 0.00 0.00 95 1012.2
20260509084000 50 258 0.0 0.0 0.00 0.00 0.00 94 1011.8
20260509083500 50 258 0.0 0.0 0.00 0.00 0.00 92 1011.8
20260509083002 50 258 0.0 0.0 0.00 0.00 0.00 92 1011.7
20260509082501 50 258 0.0 0.0 0.00 0.00 0.00 92 1011.7
20260509081501 51 258 0.0 0.0 0.00 0.00 0.00 92 1011.7
20260509081003 51 258 0.0 0.0 0.00 0.00 0.00 92 1011.6
20260509080500 51 258 0.0 0.0 0.00 0.00 0.00 92 1011.8
20260509080003 51 258 0.0 0.0 0.00 0.00 0.00 93 1011.9
20260509075500 51 258 0.0 0.0 0.00 0.00 0.00 94 1012.0
20260509075002 51 258 0.0 0.0 0.00 0.00 0.00 93 1012.0
20260509074002 51 258 0.0 0.0 0.00 0.00 0.00 92 1011.9
20260509073001 51 258 0.0 0.0 0.00 0.00 0.00 93 1011.9
20260509072501 51 258 0.0 0.0 0.00 0.00 0.00 92 1011.8
20260509072002 51 258 0.0 0.0 0.00 0.00 0.00 91 1011.8
20260509071501 51 258 0.0 0.0 0.00 0.00 0.00 91 1011.9
20260509070501 52 258 0.0 0.0 0.00 0.00 0.00 90 1012.3
20260509070005 52 258 0.0 0.0 0.00 0.00 0.00 90 1012.4
20260509065500 52 258 0.0 0.0 0.00 0.00 0.00 90 1012.6
20260509065000 52 258 0.0 0.0 0.00 0.00 0.00 90 1012.8
20260509064000 52 258 0.0 0.0 0.00 0.00 0.00 89 1012.9
20260509063503 52 258 0.0 0.0 0.00 0.00 0.00 89 1013.0
20260509063001 53 258 0.0 0.0 0.00 0.00 0.00 89 1013.1
20260509062500 53 258 0.0 0.0 0.00 0.00 0.00 89 1013.2
20260509062002 53 258 0.0 0.0 0.00 0.00 0.00 90 1013.3
20260509061500 53 258 0.0 0.0 0.00 0.00 0.00 90 1013.2
20260509060004 53 258 0.0 0.0 0.00 0.00 0.00 89 1013.4
20260509054459 54 258 0.0 0.0 0.00 0.00 0.00 89 1013.5
20260509054001 54 258 0.0 0.0 0.00 0.00 0.00 89 1013.5
20260509053459 54 258 0.0 0.0 0.00 0.00 0.00 89 1013.7
20260509052459 54 258 0.0 0.0 0.00 0.00 0.00 89 1013.7
20260509052002 54 258 0.0 0.0 0.00 0.00 0.00 88 1013.8
20260509051500 54 258 0.0 0.0 0.00 0.00 0.00 88 1013.7
20260509051001 54 258 0.0 0.0 0.00 0.00 0.00 87 1013.8
20260509050459 54 258 0.0 0.0 0.00 0.00 0.00 88 1014.0
20260509050005 54 258 0.0 0.0 0.00 0.00 0.00 87 1013.9
20260509045500 54 258 0.0 0.0 0.00 0.00 0.00 87 1014.0
20260509045000 55 258 0.0 0.0 0.00 0.00 0.00 87 1013.9
20260509044000 55 258 0.0 0.0 0.00 0.00 0.00 87 1014.1
20260509043500 55 258 0.0 0.0 0.00 0.00 0.00 87 1014.2
20260509043000 55 258 0.0 0.0 0.00 0.00 0.00 87 1014.3
20260509042000 55 258 0.0 0.0 0.00 0.00 0.00 86 1014.4
20260509041500 56 258 0.0 0.0 0.00 0.00 0.00 86 1014.4
20260509041002 56 258 0.0 0.0 0.00 0.00 0.00 86 1014.4
20260509040500 56 258 0.0 0.0 0.00 0.00 0.00 86 1014.4
20260509040007 56 258 0.0 0.0 0.00 0.00 0.00 86 1014.5
20260509035504 56 258 0.0 0.0 0.00 0.00 0.00 86 1014.5
20260509035005 56 258 0.0 0.0 0.00 0.00 0.00 86 1014.6
20260509034503 56 258 0.0 0.0 0.00 0.00 0.00 87 1014.8
20260509034003 56 258 0.0 0.0 0.00 0.00 0.00 87 1015.1
20260509033503 56 258 0.0 0.0 0.00 0.00 0.00 86 1015.2
20260509033005 56 258 0.0 0.0 0.00 0.00 0.00 86 1015.2
20260509032503 56 258 0.0 0.0 0.00 0.00 0.00 86 1015.0
20260509032003 56 258 0.0 0.0 0.00 0.00 0.00 85 1014.8
20260509031503 56 258 0.0 0.0 0.00 0.00 0.00 84 1014.9
20260509031005 56 258 0.0 0.0 0.00 0.00 0.00 84 1014.9
20260509030503 57 258 0.0 0.0 0.00 0.00 0.00 84 1014.8
20260509030004 57 258 0.0 0.0 0.00 0.00 0.00 83 1014.9
20260509025503 57 258 0.0 0.0 0.00 0.00 0.00 84 1014.7
20260509025002 57 258 0.0 0.0 0.00 0.00 0.00 84 1014.6
20260509024503 57 258 0.0 0.0 0.00 0.00 0.00 84 1014.7
20260509023503 57 258 0.0 0.0 0.00 0.00 0.00 84 1014.7
20260509023003 57 258 0.0 0.0 0.00 0.00 0.00 83 1014.7
20260509022005 58 258 0.0 0.0 0.00 0.00 0.00 83 1014.7
20260509021503 58 258 0.0 0.0 0.00 0.00 0.00 83 1014.6
20260509021003 58 258 0.0 0.0 0.00 0.00 0.00 82 1014.7
20260509020503 58 258 0.0 0.0 0.00 0.00 0.00 82 1014.6
20260509020005 58 258 0.0 0.0 0.00 0.00 0.00 81 1014.9
20260509015505 58 258 0.0 0.0 0.00 0.00 0.00 81 1014.8
20260509014503 59 258 0.0 0.0 0.00 0.00 0.00 81 1014.7
20260509014003 59 258 0.0 0.0 0.00 0.00 0.00 81 1014.6
20260509013003 59 258 0.0 0.0 0.00 0.00 0.00 80 1014.4
20260509012503 59 258 0.0 0.0 0.00 0.00 0.00 80 1014.4
20260509011004 60 258 0.0 0.0 0.00 0.00 0.00 79 1014.3
20260509010503 60 258 0.0 0.0 0.00 0.00 0.00 79 1014.3
20260509010005 61 258 0.0 0.0 0.00 0.00 0.00 79 1014.3
20260509005504 61 258 0.0 0.0 0.00 0.00 0.00 78 1014.2
20260509005003 61 258 0.0 0.0 0.00 0.00 0.00 78 1014.2
20260509004502 61 258 0.0 0.0 0.00 0.00 0.00 78 1014.2
20260509004003 62 258 0.0 0.0 0.00 0.00 0.00 77 1014.2
20260509002503 62 258 0.0 0.0 0.00 0.00 0.00 76 1014.3
20260509002004 63 258 0.0 0.0 0.00 0.00 0.00 75 1014.4
20260509001503 63 258 0.0 0.0 0.00 0.00 0.00 75 1014.3
20260509001005 63 258 0.0 0.0 0.00 0.00 0.00 75 1014.3
20260509000503 64 258 0.0 0.0 0.00 0.00 0.00 75 1014.4
20260509000004 64 258 0.0 0.0 0.00 0.00 0.00 75 1014.2
20260508235503 64 258 0.0 0.0 0.00 0.00 0.00 74 1014.1
20260508235002 64 258 0.0 0.0 0.00 0.00 0.00 73 1014.1
20260508234502 64 258 0.0 0.0 0.00 0.00 0.00 73 1013.9
20260508234002 65 258 0.0 0.0 0.00 0.00 0.00 73 1013.9
20260508233001 65 258 0.0 0.0 0.00 0.00 0.00 73 1014.0
20260508232502 65 258 0.0 0.0 0.00 0.00 0.00 73 1014.1
20260508231504 66 258 0.0 0.0 0.00 0.00 0.00 72 1014.2
20260508230502 66 258 0.0 0.0 0.00 0.00 0.00 71 1014.2
20260508230004 66 258 0.0 0.0 0.00 0.00 0.00 72 1014.0
20260508225503 67 258 0.0 0.0 0.00 0.00 0.00 73 1014.0
20260508225002 67 258 0.0 0.0 0.00 0.00 0.00 72 1014.1
20260508224002 66 258 0.0 0.0 0.00 0.00 0.00 71 1014.0
20260508223504 66 258 0.0 0.0 0.00 0.00 0.00 69 1014.0
20260508223002 66 258 0.0 0.0 0.00 0.00 0.00 70 1014.0
20260508222502 66 258 0.0 1.0 0.00 0.00 0.00 69 1014.1
20260508222004 66 258 0.0 2.0 0.00 0.00 0.00 69 1014.1
20260508221502 67 234 0.0 2.0 0.00 0.00 0.00 69 1013.9
20260508221002 67 292 0.0 1.0 0.00 0.00 0.00 68 1014.1
20260508220006 67 292 0.0 2.0 0.00 0.00 0.00 65 1014.0
20260508215502 67 284 0.0 4.0 0.00 0.00 0.00 65 1013.9
20260508214502 67 300 1.0 3.0 0.00 0.00 0.00 61 1013.9
20260508213502 68 284 1.0 2.0 0.00 0.00 0.00 61 1013.9
20260508213002 68 286 1.0 2.0 0.00 0.00 0.00 60 1014.0
20260508212506 69 266 1.0 4.0 0.00 0.00 0.00 58 1014.0
20260508212003 69 283 1.0 4.0 0.00 0.00 0.00 56 1014.0
20260508211502 69 276 1.0 3.0 0.00 0.00 0.00 57 1014.1
20260508211002 69 241 1.0 4.0 0.00 0.00 0.00 58 1014.0
20260508210502 69 292 1.0 4.0 0.00 0.00 0.00 56 1014.1
20260508210006 69 279 1.0 4.0 0.00 0.00 0.00 57 1013.9
20260508205502 70 251 1.0 8.0 0.00 0.00 0.00 58 1013.9
20260508205002 70 293 1.0 7.0 0.00 0.00 0.00 58 1013.9
20260508204502 70 275 1.0 5.0 0.00 0.00 0.00 57 1014.0
20260508204005 70 284 1.0 3.0 0.00 0.00 0.00 56 1014.1
20260508203002 70 192 1.0 4.0 0.00 0.00 0.00 59 1014.1
20260508202005 70 259 1.0 6.0 0.00 0.00 0.00 55 1014.2
20260508201502 71 284 1.0 3.0 0.00 0.00 0.00 54 1014.2
20260508201002 71 213 1.0 3.0 0.00 0.00 0.00 58 1014.3
20260508200502 71 211 1.0 5.0 0.00 0.00 0.00 58 1014.3
20260508195502 71 288 1.0 4.0 0.00 0.00 0.00 56 1014.5
20260508195005 71 225 1.0 4.0 0.00 0.00 0.00 55 1014.5
20260508194502 71 173 1.0 4.0 0.00 0.00 0.00 54 1014.8
20260508193003 71 121 1.0 7.0 0.00 0.00 0.00 56 1015.1
20260508192502 72 301 1.0 7.0 0.00 0.00 0.00 52 1015.2
20260508192002 73 149 1.0 4.0 0.00 0.00 0.00 54 1015.1
20260508191004 72 195 1.0 7.0 0.00 0.00 0.00 54 1015.4
20260508190004 72 307 2.0 5.0 0.00 0.00 0.00 54 1015.4
20260508185503 71 152 2.0 8.0 0.00 0.00 0.00 56 1015.5
20260508185002 70 290 2.0 8.0 0.00 0.00 0.00 54 1015.5
20260508184502 70 355 1.0 7.0 0.00 0.00 0.00 52 1015.7
20260508184002 70 299 1.0 4.0 0.00 0.00 0.00 56 1015.8
20260508183504 70 283 1.0 4.0 0.00 0.00 0.00 57 1015.8
20260508183002 70 209 2.0 7.0 0.00 0.00 0.00 58 1015.8
20260508181503 70 182 2.0 8.0 0.00 0.00 0.00 57 1016.2
20260508181002 71 335 3.0 8.0 0.00 0.00 0.00 56 1016.0
20260508180505 71 319 3.0 9.0 0.00 0.00 0.00 58 1016.2
20260508180004 70 297 2.0 9.0 0.00 0.00 0.00 55 1016.3
20260508175502 70 263 1.0 5.0 0.00 0.00 0.00 55 1016.3
20260508174501 71 213 2.0 4.0 0.00 0.00 0.00 55 1016.4
20260508174001 71 182 2.0 6.0 0.00 0.00 0.00 57 1016.4
20260508173503 71 192 2.0 6.0 0.00 0.00 0.00 55 1016.5
20260508173001 70 205 2.0 5.0 0.00 0.00 0.00 55 1016.4
20260508171503 69 70 2.0 5.0 0.00 0.00 0.00 60 1016.6
20260508171003 69 163 2.0 5.0 0.00 0.00 0.00 57 1016.7
20260508165502 71 232 2.0 5.0 0.00 0.00 0.00 52 1017.0
20260508165000 72 190 2.0 4.0 0.00 0.00 0.00 57 1017.0
20260508163502 70 178 1.0 6.0 0.00 0.00 0.00 57 1017.2
20260508163001 71 130 1.0 4.0 0.00 0.00 0.00 50 1017.3
20260508162501 71 165 1.0 3.0 0.00 0.00 0.00 55 1017.5
20260508162001 71 321 2.0 6.0 0.00 0.00 0.00 55 1017.6
20260508161503 71 192 2.0 7.0 0.00 0.00 0.00 52 1017.6
20260508161000 71 197 2.0 6.0 0.00 0.00 0.00 55 1017.6
20260508160501 70 207 1.0 6.0 0.00 0.00 0.00 57 1017.6
20260508155501 70 213 2.0 4.0 0.00 0.00 0.00 50 1017.6
20260508155004 70 224 2.0 4.0 0.00 0.00 0.00 60 1017.7
20260508154501 69 233 2.0 5.0 0.00 0.00 0.00 55 1017.8
20260508154001 69 99 2.0 5.0 0.00 0.00 0.00 55 1017.8
20260508153502 69 217 2.0 5.0 0.00 0.00 0.00 58 1017.9
20260508153003 68 198 2.0 4.0 0.00 0.00 0.00 60 1018.0
20260508152501 68 190 2.0 4.0 0.00 0.00 0.00 61 1018.0
20260508152002 67 219 2.0 5.0 0.00 0.00 0.00 58 1017.9
20260508151501 67 296 2.0 5.0 0.00 0.00 0.00 57 1017.9
20260508150503 67 212 1.0 4.0 0.00 0.00 0.00 60 1018.1
20260508150003 67 287 2.0 6.0 0.00 0.00 0.00 57 1018.0
20260508145500 66 162 2.0 6.0 0.00 0.00 0.00 59 1017.9
20260508144501 65 190 1.0 6.0 0.00 0.00 0.00 61 1017.8
20260508144001 65 169 2.0 4.0 0.00 0.00 0.00 67 1017.8
20260508143500 64 150 3.0 6.0 0.00 0.00 0.00 70 1017.8
20260508143002 63 215 2.0 5.0 0.00 0.00 0.00 69 1017.8
20260508142501 62 204 1.0 5.0 0.00 0.00 0.00 70 1017.8
20260508142001 61 173 1.0 4.0 0.00 0.00 0.00 73 1017.9
20260508141500 60 138 1.0 4.0 0.00 0.00 0.00 72 1017.9
20260508141001 60 229 1.0 4.0 0.00 0.00 0.00 73 1018.0